• In Russia
  • List of Countries
  • For 7 days
  • Water Temperature
  • Satellite Maps
  • Weather Map
  • Weather Widgets
  • user-avatar
    Login

    Hourly Weather Lubyanka

    Today, 23 July, Monday

    Time Temperature Precipitation Wind Pressure Humidity
    00:00 +19°C° 0 mm 4 mps 741 mmHg 96%
    01:00 +19°C° 0 mm 5 mps 741 mmHg 96%
    02:00 +19°C° 0 mm 5 mps 741 mmHg 96%
    03:00 +19°C° 0 mm 4 mps 741 mmHg 97%
    04:00 +19°C° 0 mm 4 mps 741 mmHg 96%
    05:00 +19°C° 0 mm 5 mps 741 mmHg 96%
    06:00 +19°C° 0 mm 5 mps 741 mmHg 95%
    07:00 +19°C° 0 mm 5 mps 742 mmHg 94%
    08:00 +19°C° 0 mm 5 mps 742 mmHg 94%
    09:00 +19°C° 0 mm 5 mps 742 mmHg 93%
    10:00 +19°C° 0 mm 5 mps 742 mmHg 91%
    11:00 +20°C° 0 mm 5 mps 742 mmHg 90%
    12:00 +20°C° 0 mm 5 mps 742 mmHg 88%
    13:00 +21°C° 0 mm 5 mps 742 mmHg 87%
    14:00 +21°C° 0 mm 5 mps 742 mmHg 86%
    15:00 +22°C° 0 mm 5 mps 742 mmHg 84%
    16:00 +22°C° 0.2 mm 5 mps 742 mmHg 85%
    17:00 +22°C° 0.2 mm 5 mps 742 mmHg 86%
    18:00 +22°C° 0.2 mm 4 mps 742 mmHg 87%
    19:00 +22°C° 0.9 mm 5 mps 742 mmHg 89%
    20:00 +21°C° 0.9 mm 5 mps 742 mmHg 91%
    21:00 +20°C° 0.9 mm 5 mps 742 mmHg 93%
    22:00 +20°C° 0.7 mm 5 mps 742 mmHg 94%
    23:00 +20°C° 0.7 mm 4 mps 742 mmHg 95%

    Tomorrow, 24 July, Tuesday

    Time Temperature Precipitation Wind Pressure Humidity
    00:00 +19°C° 0.7 mm 4 mps 742 mmHg 96%
    01:00 +19°C° 0.1 mm 4 mps 742 mmHg 97%
    02:00 +19°C° 0.1 mm 4 mps 742 mmHg 97%
    03:00 +19°C° 0.1 mm 4 mps 742 mmHg 97%
    04:00 +19°C° 0 mm 3 mps 742 mmHg 97%
    05:00 +19°C° 0 mm 3 mps 743 mmHg 97%
    06:00 +19°C° 0 mm 3 mps 743 mmHg 97%
    07:00 +20°C° 0 mm 3 mps 743 mmHg 95%
    08:00 +21°C° 0 mm 3 mps 743 mmHg 93%
    09:00 +21°C° 0 mm 3 mps 743 mmHg 90%
    10:00 +23°C° 0 mm 2 mps 744 mmHg 87%
    11:00 +24°C° 0 mm 2 mps 744 mmHg 83%
    12:00 +25°C° 0 mm 2 mps 744 mmHg 80%
    13:00 +26°C° 0.4 mm 2 mps 744 mmHg 77%
    14:00 +27°C° 0.4 mm 2 mps 744 mmHg 74%
    15:00 +28°C° 0.4 mm 3 mps 744 mmHg 72%
    16:00 +27°C° 1 mm 2 mps 744 mmHg 74%
    17:00 +27°C° 1 mm 2 mps 744 mmHg 77%
    18:00 +27°C° 1 mm 2 mps 744 mmHg 79%
    19:00 +25°C° 0.2 mm 3 mps 745 mmHg 83%
    20:00 +24°C° 0.2 mm 3 mps 745 mmHg 88%
    21:00 +22°C° 0.2 mm 3 mps 745 mmHg 92%
    22:00 +21°C° 0 mm 3 mps 745 mmHg 93%
    23:00 +21°C° 0 mm 4 mps 746 mmHg 94%

    Day after tomorrow, 25 July, Wednesday

    Time Temperature Precipitation Wind Pressure Humidity
    00:00 +20°C° 0 mm 4 mps 746 mmHg 95%
    01:00 +20°C° 0.1 mm 4 mps 746 mmHg 95%
    02:00 +20°C° 0.1 mm 3 mps 746 mmHg 95%
    03:00 +19°C° 0.1 mm 3 mps 746 mmHg 95%
    04:00 +19°C° 0 mm 3 mps 746 mmHg 94%
    05:00 +19°C° 0 mm 3 mps 746 mmHg 92%
    06:00 +19°C° 0 mm 4 mps 746 mmHg 91%
    07:00 +19°C° 0 mm 4 mps 747 mmHg 86%
    08:00 +20°C° 0 mm 4 mps 747 mmHg 81%
    09:00 +20°C° 0 mm 5 mps 747 mmHg 77%
    10:00 +20°C° 0.1 mm 5 mps 747 mmHg 75%
    11:00 +21°C° 0.1 mm 5 mps 747 mmHg 74%
    12:00 +21°C° 0.1 mm 5 mps 747 mmHg 72%
    13:00 +21°C° 0.1 mm 5 mps 747 mmHg 74%
    14:00 +21°C° 0.1 mm 5 mps 747 mmHg 76%
    15:00 +21°C° 0.1 mm 5 mps 747 mmHg 78%
    16:00 +20°C° 0.1 mm 5 mps 747 mmHg 81%
    17:00 +20°C° 0.1 mm 4 mps 747 mmHg 84%
    18:00 +19°C° 0.1 mm 4 mps 747 mmHg 88%
    19:00 +19°C° 0.1 mm 3 mps 747 mmHg 90%
    20:00 +19°C° 0.1 mm 3 mps 747 mmHg 92%
    21:00 +18°C° 0.1 mm 2 mps 747 mmHg 95%
    22:00 +18°C° 0 mm 2 mps 747 mmHg 95%
    23:00 +18°C° 0 mm 2 mps 747 mmHg 96%

    26 July, Thursday

    Time Temperature Precipitation Wind Pressure Humidity
    00:00 +18°C° 0 mm 2 mps 747 mmHg 96%
    01:00 +18°C° 0 mm 2 mps 747 mmHg 96%
    02:00 +18°C° 0 mm 2 mps 747 mmHg 95%
    03:00 +18°C° 0 mm 2 mps 747 mmHg 94%
    04:00 +18°C° 0 mm 3 mps 747 mmHg 93%
    05:00 +18°C° 0 mm 3 mps 747 mmHg 92%
    06:00 +18°C° 0 mm 3 mps 747 mmHg 91%
    07:00 +19°C° 0 mm 3 mps 747 mmHg 87%
    08:00 +21°C° 0 mm 3 mps 747 mmHg 83%
    09:00 +22°C° 0 mm 4 mps 748 mmHg 79%
    10:00 +25°C° 0 mm 4 mps 748 mmHg 75%
    11:00 +26°C° 0 mm 4 mps 748 mmHg 71%
    12:00 +28°C° 0 mm 4 mps 748 mmHg 67%
    13:00 +28°C° 0 mm 4 mps 748 mmHg 67%
    14:00 +28°C° 0 mm 5 mps 748 mmHg 67%
    15:00 +29°C° 0 mm 5 mps 748 mmHg 68%
    16:00 +29°C° 0 mm 5 mps 748 mmHg 70%
    17:00 +29°C° 0 mm 4 mps 748 mmHg 72%
    18:00 +28°C° 0 mm 4 mps 748 mmHg 75%
    19:00 +27°C° 0 mm 4 mps 748 mmHg 77%
    20:00 +26°C° 0 mm 4 mps 748 mmHg 80%
    21:00 +25°C° 0 mm 4 mps 748 mmHg 82%
    22:00 +23°C° 0 mm 4 mps 748 mmHg 83%
    23:00 +23°C° 0 mm 4 mps 748 mmHg 84%

    27 July, Friday

    Time Temperature Precipitation Wind Pressure Humidity
    00:00 +22°C° 0 mm 4 mps 748 mmHg 85%
    01:00 +22°C° 0 mm 3 mps 749 mmHg 86%
    02:00 +21°C° 0 mm 3 mps 749 mmHg 86%
    03:00 +20°C° 0 mm 3 mps 749 mmHg 87%
    04:00 +20°C° 0 mm 3 mps 749 mmHg 87%
    05:00 +20°C° 0 mm 3 mps 749 mmHg 86%
    06:00 +20°C° 0 mm 3 mps 749 mmHg 86%
    07:00 +22°C° 0 mm 4 mps 750 mmHg 82%
    08:00 +23°C° 0 mm 4 mps 750 mmHg 77%
    09:00 +26°C° 0 mm 4 mps 750 mmHg 72%
    10:00 +27°C° 0 mm 5 mps 750 mmHg 68%
    11:00 +28°C° 0 mm 5 mps 750 mmHg 63%
    12:00 +30°C° 0 mm 5 mps 750 mmHg 59%
    13:00 +30°C° 0 mm 5 mps 750 mmHg 58%
    14:00 +30°C° 0 mm 5 mps 750 mmHg 57%
    15:00 +32°C° 0 mm 5 mps 750 mmHg 56%
    16:00 +30°C° 0.3 mm 4 mps 750 mmHg 61%
    17:00 +29°C° 0.3 mm 4 mps 749 mmHg 66%
    18:00 +29°C° 0.3 mm 3 mps 749 mmHg 71%
    19:00 +27°C° 0 mm 3 mps 750 mmHg 75%
    20:00 +25°C° 0 mm 3 mps 750 mmHg 79%
    21:00 +24°C° 0 mm 3 mps 750 mmHg 82%
    22:00 +22°C° 0 mm 3 mps 750 mmHg 84%
    23:00 +21°C° 0 mm 3 mps 750 mmHg 85%

    28 July, Saturday

    Time Temperature Precipitation Wind Pressure Humidity
    00:00 +21°C° 0 mm 3 mps 750 mmHg 87%
    01:00 +21°C° 0 mm 3 mps 750 mmHg 86%
    02:00 +21°C° 0 mm 3 mps 749 mmHg 85%
    03:00 +20°C° 0 mm 2 mps 749 mmHg 83%
    04:00 +20°C° 0 mm 3 mps 749 mmHg 84%
    05:00 +20°C° 0 mm 3 mps 749 mmHg 85%
    06:00 +20°C° 0 mm 3 mps 749 mmHg 85%
    07:00 +22°C° 0.1 mm 3 mps 749 mmHg 82%
    08:00 +23°C° 0.1 mm 4 mps 749 mmHg 78%
    09:00 +26°C° 0.1 mm 4 mps 749 mmHg 74%
    10:00 +27°C° 0.3 mm 4 mps 749 mmHg 71%
    11:00 +27°C° 0.3 mm 3 mps 749 mmHg 68%
    12:00 +28°C° 0.3 mm 3 mps 749 mmHg 64%
    13:00 +28°C° 0 mm 3 mps 749 mmHg 63%
    14:00 +28°C° 0 mm 3 mps 749 mmHg 62%
    15:00 +29°C° 0 mm 3 mps 749 mmHg 61%
    16:00 +28°C° 0 mm 2 mps 749 mmHg 64%
    17:00 +27°C° 0 mm 2 mps 748 mmHg 67%
    18:00 +27°C° 0 mm 2 mps 748 mmHg 69%
    19:00 +26°C° 0 mm 2 mps 748 mmHg 69%
    20:00 +25°C° 0 mm 2 mps 749 mmHg 69%
    21:00 +25°C° 0 mm 2 mps 749 mmHg 69%
    22:00 +24°C° 0.1 mm 2 mps 749 mmHg 71%
    23:00 +24°C° 0.1 mm 2 mps 749 mmHg 72%
    Show more